Location: Unspecified
(41.1637°N, 24.2901°E)
Time: 03:13:58
(UTC+01:00)

ISS - Pass Details

Date: 13 November 2025
Orbit: 414 x 420 km, 51.6° (Epoch: 18 November)

Event Time Altitude Azimuth Distance (km) Brightness Sun altitude
Rises 16:35:07 0° 197° (SSW) 2,336 0.6 -6.0°
Reaches altitude 10° 16:37:36 10° 178° (S) 1,478 -0.7 -6.5°
Maximum altitude 16:40:00 19° 132° (SE) 1,071 -2.0 -6.9°
Drops below altitude 10° 16:42:24 10° 86° (E) 1,485 -1.6 -7.3°
Enters shadow 16:42:35 - 84° (E) 1,541 -1.5 -7.4°
